PACCTY Weather Reports


Display with metric or nautical units.
time (UTC)temp
F
wind
direction
speed
MPH
gust
MPH
rain 1hr
in
rain 24hr
in
rain mn
in
humidity
%
barometer
mb
20260904105836 55 0 0.0 0.0 0.01 0.51 0.04 99 1008.1
20260904104338 55 0 0.0 0.0 0.00 0.51 0.03 99 1008.0
20260904103837 55 0 0.0 0.0 0.00 0.51 0.03 99 1008.0
20260904103337 55 0 0.0 0.0 0.00 0.51 0.03 99 1008.0
20260904102836 55 0 0.0 0.0 0.00 0.51 0.03 99 1007.9
20260904102339 55 0 0.0 0.0 0.01 0.51 0.03 99 1007.9
20260904101836 55 0 0.0 0.0 0.01 0.51 0.03 99 1007.7
20260904101337 55 0 0.0 0.0 0.01 0.51 0.03 99 1007.9
20260904100836 55 0 0.0 0.0 0.01 0.51 0.03 99 1007.7
20260904100337 55 0 0.0 0.0 0.01 0.54 0.03 99 1007.9
20260904095836 55 0 0.0 0.0 0.01 0.54 0.03 99 1007.7
20260904094836 55 0 0.0 0.0 0.01 0.54 0.03 99 1007.9
20260904092836 55 0 0.0 0.0 0.01 0.54 0.03 99 1007.7
20260904091836 55 0 0.0 4.0 0.00 0.54 0.02 99 1007.6
20260904090836 55 0 0.0 1.0 0.01 0.54 0.02 99 1007.4
20260904090337 55 0 0.0 0.0 0.01 0.57 0.02 99 1007.4
20260904085836 55 0 0.0 0.0 0.01 0.57 0.02 99 1007.5
20260904084836 55 0 0.0 0.0 0.01 0.57 0.02 99 1007.5
20260904084337 55 0 0.0 0.0 0.01 0.57 0.02 99 1007.4
20260904083836 55 0 0.0 0.0 0.01 0.57 0.02 99 1007.4
20260904083337 55 0 0.0 0.0 0.01 0.57 0.02 99 1007.5
20260904082836 55 0 0.0 0.0 0.01 0.57 0.02 99 1007.5
20260904081836 55 0 0.0 0.0 0.02 0.57 0.02 99 1007.6
20260904081338 55 0 0.0 0.0 0.01 0.57 0.02 99 1007.5
20260904080836 55 0 0.0 0.0 0.01 0.57 0.02 99 1007.5
20260904080337 55 0 0.0 0.0 0.01 0.56 0.01 99 1007.5
20260904075836 55 0 0.0 0.0 0.01 0.56 0.01 99 1007.4
20260904075338 55 0 0.0 0.0 0.01 0.56 0.01 99 1007.5
20260904074836 55 0 0.0 0.0 0.01 0.56 0.01 99 1007.5
20260904074337 55 0 0.0 0.0 0.01 0.56 0.01 99 1007.5
20260904073836 55 0 0.0 0.0 0.01 0.56 0.01 99 1007.6
20260904073337 55 0 0.0 0.0 0.02 0.56 0.01 99 1007.6
20260904072837 55 0 0.0 0.0 0.02 0.56 0.01 99 1007.5
20260904072339 56 0 0.0 0.0 0.01 0.56 0.01 99 1007.4
20260904071836 56 0 0.0 0.0 0.01 0.56 0.01 99 1007.5
20260904071337 56 0 0.0 0.0 0.01 0.56 0.00 99 1007.4
20260904070837 56 0 0.0 0.0 0.01 0.56 0.00 99 1007.5
20260904070337 56 0 0.0 0.0 0.01 0.56 0.00 99 1007.5
20260904065836 56 0 0.0 0.0 0.01 0.56 0.56 99 1007.5
20260904065339 56 0 0.0 0.0 0.02 0.56 0.56 99 1007.5
20260904064836 56 0 0.0 0.0 0.02 0.56 0.56 99 1007.6
20260904064337 56 0 0.0 0.0 0.02 0.56 0.56 99 1007.4
20260904063836 56 0 0.0 0.0 0.02 0.56 0.56 99 1007.5
20260904062836 56 0 0.0 0.0 0.01 0.56 0.55 99 1007.5
20260904062338 56 0 0.0 0.0 0.01 0.56 0.55 99 1007.6
20260904061836 56 0 0.0 0.0 0.01 0.56 0.55 99 1007.6
20260904061337 56 0 0.0 0.0 0.02 0.56 0.55 99 1007.6
20260904060837 56 0 0.0 0.0 0.02 0.56 0.55 99 1007.6
20260904060337 56 0 0.0 0.0 0.02 0.55 0.55 99 1007.6
20260904055836 56 0 0.0 0.0 0.02 0.55 0.55 99 1007.7
20260904054836 56 0 0.0 0.0 0.01 0.54 0.54 99 1007.8
20260904054337 56 0 0.0 0.0 0.02 0.54 0.54 99 1007.7
20260904053836 56 0 0.0 0.0 0.02 0.54 0.54 99 1007.9
20260904053337 56 0 0.0 0.0 0.02 0.54 0.54 99 1007.9
20260904052836 56 0 0.0 0.0 0.02 0.54 0.54 99 1007.9
20260904052339 56 0 0.0 0.0 0.02 0.54 0.54 99 1007.9
20260904051836 56 0 0.0 0.0 0.02 0.54 0.54 99 1007.9
20260904051420 56 0 0.0 0.0 0.01 0.54 0.54 99 1007.9
20260904051337 56 0 0.0 0.0 0.01 0.54 0.54 99 1007.9
20260904050836 56 0 0.0 0.0 0.01 0.54 0.53 99 1007.8
20260904050337 57 0 0.0 0.0 0.02 0.53 0.53 99 1007.8
20260904045836 57 0 0.0 0.0 0.02 0.53 0.53 99 1007.9
20260904045339 57 0 0.0 0.0 0.02 0.53 0.53 99 1007.8
20260904044836 57 0 0.0 0.0 0.02 0.53 0.53 99 1007.8
20260904044338 57 0 0.0 0.0 0.01 0.53 0.53 99 1007.8
20260904043836 57 0 0.0 0.0 0.01 0.53 0.53 99 1007.8
20260904043337 57 0 0.0 0.0 0.02 0.53 0.52 99 1007.7
20260904042836 57 0 0.0 0.0 0.02 0.53 0.52 99 1007.8
20260904041835 57 0 0.0 0.0 0.02 0.53 0.52 99 1007.8
20260904041337 57 0 0.0 0.0 0.02 0.53 0.52 99 1007.7
20260904040836 57 0 0.0 0.0 0.02 0.53 0.52 99 1007.7
20260904040337 57 0 0.0 0.0 0.02 0.52 0.52 99 1007.7
20260904035836 57 0 0.0 0.0 0.02 0.52 0.51 99 1007.7
20260904034337 57 0 0.0 0.0 0.02 0.52 0.51 99 1007.5
20260904033836 57 0 0.0 0.0 0.02 0.52 0.51 99 1007.5
20260904033338 57 0 0.0 0.0 0.01 0.52 0.51 99 1007.5
20260904032835 57 0 0.0 0.0 0.01 0.52 0.51 99 1007.4
20260904032338 57 0 0.0 0.0 0.02 0.52 0.50 99 1007.3
20260904031836 57 0 0.0 0.0 0.02 0.52 0.50 99 1007.3
20260904031336 57 0 0.0 0.0 0.02 0.52 0.50 99 1007.4
20260904030836 57 0 0.0 0.0 0.02 0.52 0.50 99 1007.2
20260904030336 57 0 0.0 0.0 0.01 0.50 0.50 99 1007.3
20260904025835 57 0 0.0 0.0 0.01 0.50 0.50 99 1007.3
20260904025339 57 0 0.0 0.0 0.01 0.50 0.49 99 1007.3
20260904024835 57 0 0.0 0.0 0.01 0.50 0.49 99 1007.3
20260904023837 57 0 0.0 0.0 0.02 0.50 0.49 99 1007.2
20260904022835 58 0 0.0 0.0 0.02 0.50 0.49 99 1007.3
20260904022340 57 0 0.0 0.0 0.01 0.50 0.49 99 1007.3
20260904021837 58 0 0.0 0.0 0.01 0.50 0.48 99 1007.3
20260904021336 58 0 0.0 0.0 0.01 0.50 0.48 99 1007.3
20260904020835 58 0 0.0 0.0 0.01 0.50 0.48 99 1007.2
20260904015835 58 0 0.0 0.0 0.02 0.49 0.48 99 1007.2
20260904015338 58 0 0.0 0.0 0.02 0.49 0.48 99 1007.2
20260904014835 58 0 0.0 0.0 0.02 0.49 0.48 99 1007.2
20260904014335 58 0 0.0 0.0 0.01 0.49 0.48 99 1007.2
20260904013836 58 0 0.0 0.0 0.01 0.49 0.47 99 1007.2
20260904013336 58 0 0.0 0.0 0.01 0.49 0.47 99 1007.1
20260904012835 58 0 0.0 0.0 0.01 0.49 0.47 99 1007.2
20260904012340 58 0 0.0 0.0 0.02 0.49 0.47 99 1007.2
20260904011835 58 0 0.0 0.0 0.02 0.49 0.47 98 1007.2
20260904011335 58 0 0.0 0.0 0.02 0.49 0.47 99 1007.3
20260904010836 58 0 0.0 0.0 0.02 0.49 0.47 99 1007.3
20260904010336 58 0 0.0 0.0 0.01 0.47 0.47 99 1007.2
20260904005835 58 0 0.0 0.0 0.01 0.47 0.46 99 1007.3
20260904005340 58 0 0.0 0.0 0.02 0.47 0.46 99 1007.3
20260904004835 58 0 0.0 0.0 0.02 0.47 0.46 99 1007.3
20260904004336 58 0 0.0 0.0 0.02 0.47 0.46 98 1007.3
20260904003836 58 0 0.0 0.0 0.02 0.47 0.46 98 1007.3
20260904003336 58 0 0.0 0.0 0.02 0.47 0.46 99 1007.3
20260904002836 58 0 0.0 0.0 0.02 0.47 0.46 99 1007.3
20260904001335 58 0 0.0 0.0 0.02 0.47 0.45 98 1007.2
20260904000836 58 0 0.0 0.0 0.02 0.47 0.45 98 1007.2
20260904000336 58 0 0.0 0.0 0.03 0.45 0.45 98 1007.3
20260903235835 58 0 0.0 0.0 0.03 0.45 0.45 98 1007.1
20260903235340 58 0 0.0 0.0 0.02 0.45 0.45 98 1007.1
20260903234908 58 0 0.0 0.0 0.02 0.45 0.44 98 1007.2
20260903234837 58 0 0.0 0.0 0.02 0.45 0.44 98 1007.2
20260903233836 59 0 0.0 0.0 0.03 0.45 0.44 98 1007.3
20260903233338 59 0 0.0 0.0 0.03 0.45 0.44 98 1007.4
20260903232835 59 0 0.0 0.0 0.03 0.45 0.44 98 1007.4
20260903232338 59 0 0.0 0.0 0.03 0.45 0.44 98 1007.4
20260903231835 59 0 0.0 0.0 0.03 0.45 0.43 99 1007.5
20260903231338 59 0 0.0 0.0 0.03 0.45 0.43 99 1007.5
20260903230338 59 0 0.0 0.0 0.03 0.43 0.43 98 1007.5
20260903230035 59 0 0.0 0.0 0.03 0.43 0.43 99 1007.5
20260903225835 59 0 0.0 0.0 0.03 0.43 0.43 99 1007.5
20260903225338 59 0 0.0 0.0 0.03 0.42 0.42 99 1007.5
20260903224835 59 0 0.0 0.0 0.03 0.42 0.42 99 1007.6
20260903224337 59 0 0.0 0.0 0.02 0.42 0.42 99 1007.6
20260903223837 59 0 0.0 0.0 0.02 0.42 0.42 99 1007.5
20260903222835 58 0 0.0 0.0 0.03 0.42 0.41 99 1007.6
20260903222338 58 0 0.0 0.0 0.02 0.42 0.41 99 1007.6
20260903221835 58 0 0.0 0.0 0.02 0.42 0.41 99 1007.5
20260903221336 58 0 0.0 0.0 0.03 0.42 0.40 99 1007.4
20260903220836 58 0 0.0 0.0 0.03 0.42 0.40 99 1007.4
20260903220337 58 0 0.0 0.0 0.02 0.40 0.40 99 1007.4
20260903215835 58 0 0.0 0.0 0.02 0.40 0.40 99 1007.4
20260903215337 58 0 0.0 0.0 0.03 0.40 0.39 98 1007.5
20260903214337 58 0 0.0 0.0 0.03 0.40 0.39 98 1007.6
20260903213835 59 0 0.0 0.0 0.03 0.40 0.39 98 1007.7
20260903213336 59 0 0.0 0.0 0.03 0.40 0.39 98 1007.8
20260903212835 59 0 0.0 0.0 0.03 0.40 0.38 98 1007.8
20260903212335 60 0 0.0 0.0 0.03 0.40 0.38 99 1007.7
20260903211835 59 0 0.0 0.0 0.03 0.40 0.38 99 1007.6
20260903211337 59 0 0.0 4.0 0.03 0.40 0.38 98 1007.5
20260903210336 60 0 0.0 0.0 0.03 0.38 0.37 98 1007.5
20260903205835 60 0 0.0 3.0 0.03 0.38 0.37 99 1007.3
20260903205338 61 0 0.0 3.0 0.03 0.38 0.37 99 1007.5
20260903204835 61 250 0.0 3.0 0.03 0.38 0.37 99 1007.5
20260903204337 61 0 0.0 4.0 0.03 0.38 0.36 99 1007.4
20260903203835 60 203 0.0 4.0 0.03 0.38 0.36 99 1007.4
20260903203336 60 0 0.0 1.0 0.03 0.38 0.36 99 1007.5
20260903202835 60 0 0.0 0.0 0.03 0.38 0.36 99 1007.5
20260903202338 60 0 0.0 0.0 0.03 0.38 0.35 100 1007.5
20260903201836 59 0 0.0 0.0 0.03 0.38 0.35 100 1007.5
20260903200837 59 0 0.0 0.0 0.02 0.38 0.35 99 1007.5
20260903200336 59 0 0.0 0.0 0.03 0.37 0.34 100 1007.5
20260903195835 59 0 0.0 0.0 0.03 0.37 0.34 100 1007.6
20260903195339 59 0 0.0 0.0 0.02 0.37 0.34 100 1007.6
20260903194835 59 0 0.0 0.0 0.02 0.37 0.34 100 1007.7
20260903194336 58 0 0.0 0.0 0.03 0.37 0.33 100 1007.8
20260903193336 58 0 0.0 0.0 0.02 0.37 0.33 100 1007.7
20260903192835 58 0 0.0 0.0 0.02 0.37 0.33 100 1007.8
20260903192338 58 0 0.0 0.0 0.03 0.37 0.32 100 1007.7
20260903191835 58 0 0.0 0.0 0.03 0.37 0.32 100 1007.7
20260903191337 58 0 0.0 0.0 0.03 0.37 0.32 100 1007.8
20260903190836 57 0 0.0 0.0 0.03 0.37 0.32 100 1007.9
20260903190336 57 0 0.0 0.0 0.02 0.35 0.32 100 1007.8
20260903185835 56 0 0.0 0.0 0.02 0.35 0.31 100 1008.0
20260903185338 56 0 0.0 0.0 0.03 0.35 0.31 100 1008.0
20260903184836 56 0 0.0 0.0 0.03 0.35 0.31 100 1008.0
20260903184338 56 0 0.0 0.0 0.02 0.35 0.31 100 1008.0
20260903183836 55 0 0.0 0.0 0.02 0.35 0.30 100 1008.0
20260903183337 55 0 0.0 0.0 0.03 0.35 0.30 100 1008.0
20260903182835 55 0 0.0 0.0 0.03 0.35 0.30 100 1008.2
20260903182338 55 0 0.0 0.0 0.02 0.35 0.30 100 1008.3
20260903181835 55 0 0.0 0.0 0.02 0.35 0.30 100 1008.2
20260903180336 54 0 0.0 0.0 0.03 0.40 0.29 100 1008.3
20260903175835 54 0 0.0 0.0 0.03 0.40 0.29 100 1008.3
20260903174835 54 0 0.0 0.0 0.02 0.40 0.28 100 1008.3
20260903173836 54 0 0.0 0.0 0.03 0.40 0.28 100 1008.3
20260903173337 54 0 0.0 0.0 0.02 0.40 0.28 100 1008.3
20260903172835 54 0 0.0 0.0 0.02 0.40 0.28 100 1008.3
20260903172342 54 0 0.0 0.0 0.02 0.40 0.27 100 1008.4
20260903171335 54 0 0.0 0.0 0.03 0.40 0.27 100 1008.6
20260903170836 54 0 0.0 0.0 0.03 0.40 0.27 100 1008.3
20260903170336 54 0 0.0 0.0 0.02 0.41 0.27 100 1008.3
20260903165835 54 0 0.0 0.0 0.02 0.41 0.26 100 1008.3
20260903165338 54 0 0.0 3.0 0.03 0.41 0.26 100 1008.2
20260903164835 54 264 0.0 3.0 0.03 0.41 0.26 100 1008.1
20260903164337 54 0 0.0 0.0 0.02 0.41 0.26 100 1008.3
20260903163835 54 0 0.0 0.0 0.02 0.41 0.26 100 1008.1
20260903163336 54 0 0.0 0.0 0.02 0.41 0.25 100 1008.2
20260903162835 54 0 0.0 5.0 0.02 0.41 0.25 100 1008.3
20260903162338 54 273 0.0 5.0 0.03 0.41 0.25 100 1008.4
20260903161835 54 0 1.0 1.0 0.03 0.41 0.25 100 1008.3
20260903161336 54 0 0.0 0.0 0.02 0.41 0.24 100 1008.2
20260903160835 54 0 0.0 0.0 0.02 0.41 0.24 100 1008.3
20260903160336 54 0 0.0 3.0 0.02 0.46 0.24 100 1008.3
20260903155835 54 261 0.0 3.0 0.02 0.46 0.24 100 1008.2
20260903154835 54 0 0.0 0.0 0.02 0.46 0.24 100 1008.2
20260903154336 54 0 0.0 0.0 0.02 0.46 0.23 100 1007.9
20260903152835 54 0 0.0 0.0 0.02 0.46 0.23 100 1008.1
20260903152337 54 217 0.0 7.0 0.02 0.46 0.23 100 1008.0
20260903151835 54 201 0.0 7.0 0.02 0.46 0.22 100 1007.8
20260903151336 55 0 2.0 2.0 0.02 0.46 0.22 100 1007.9
20260903150835 55 0 0.0 0.0 0.02 0.46 0.22 100 1007.7
20260903145834 55 0 0.0 0.0 0.03 0.48 0.22 100 1007.6
20260903145334 55 0 0.0 0.0 0.02 0.48 0.22 100 1007.5
20260903144837 55 0 0.0 0.0 0.02 0.48 0.21 100 1007.4
20260903144336 56 0 0.0 0.0 0.02 0.48 0.21 100 1007.4
20260903143837 56 0 0.0 0.0 0.02 0.48 0.21 100 1007.5
20260903142834 56 0 0.0 0.0 0.03 0.48 0.21 100 1007.4
20260903141834 56 0 0.0 0.0 0.02 0.48 0.20 100 1007.4
20260903141335 56 0 0.0 0.0 0.03 0.48 0.20 100 1007.3
20260903140835 56 0 0.0 0.0 0.03 0.48 0.20 100 1007.4
20260903140336 56 0 0.0 0.0 0.02 0.46 0.20 100 1007.5
20260903135834 56 0 0.0 0.0 0.02 0.46 0.20 100 1007.5
20260903135338 56 0 0.0 0.0 0.02 0.46 0.19 100 1007.3
20260903134834 56 0 0.0 0.0 0.02 0.46 0.19 100 1007.4
20260903133837 56 0 0.0 0.0 0.03 0.46 0.19 100 1007.4
20260903133336 56 0 0.0 0.0 0.02 0.46 0.19 100 1007.3
20260903132835 56 0 0.0 0.0 0.02 0.46 0.18 100 1007.3
20260903131834 57 0 0.0 0.0 0.03 0.46 0.18 100 1007.3
20260903131336 57 0 0.0 0.0 0.02 0.46 0.18 100 1007.2
20260903130835 57 0 0.0 0.0 0.02 0.46 0.18 100 1007.2
20260903130336 57 0 0.0 0.0 0.03 0.44 0.17 100 1007.1
20260903125834 57 0 0.0 0.0 0.03 0.44 0.17 100 1007.1
20260903124834 57 0 0.0 0.0 0.03 0.44 0.17 100 1007.1
20260903123835 57 0 0.0 0.0 0.03 0.44 0.16 99 1007.2
20260903123337 57 0 0.0 0.0 0.04 0.44 0.16 99 1007.2
20260903122834 57 0 0.0 0.0 0.04 0.44 0.16 99 1007.2
20260903122338 57 0 0.0 0.0 0.03 0.44 0.16 99 1007.3
20260903121834 57 0 0.0 0.0 0.03 0.44 0.15 99 1007.3
20260903120835 57 0 0.0 0.0 0.04 0.44 0.15 99 1007.4
20260903120336 57 0 0.0 0.0 0.03 0.40 0.15 99 1007.4
20260903115834 57 0 0.0 0.0 0.03 0.40 0.14 99 1007.4
20260903115339 57 0 0.0 0.0 0.04 0.40 0.14 99 1007.6
20260903114834 57 0 0.0 0.0 0.04 0.40 0.14 99 1007.6
20260903114336 57 0 0.0 0.0 0.04 0.40 0.14 99 1007.7
20260903113336 57 0 0.0 0.0 0.03 0.40 0.13 99 1007.7
20260903112834 57 0 0.0 0.0 0.03 0.40 0.13 99 1007.7
20260903111834 57 0 0.0 0.0 0.04 0.40 0.12 99 1007.7
20260903111334 56 0 0.0 0.0 0.03 0.40 0.12 99 1007.7
20260903110835 56 0 0.0 0.0 0.03 0.40 0.12 99 1007.6